Location: Unspecified
(0.0000°N, 0.0000°E)
Time: 06:14:36
(UTC+00:00)

Vanguard 2 Rocket - Pass Details

Date: 08 October 2022
Orbit: 555 x 3321 km, 32.9° (Epoch: 06 December)

Event Time Altitude Azimuth Distance (km) Brightness Sun altitude
Rises 12:48:48 0° 204° (SSW) 4,692 10.7 73.6°
Reaches altitude 10° 12:54:32 10° 177° (S) 4,342 10.6 72.2°
Maximum altitude 12:59:33 13° 152° (SSE) 4,587 10.6 71.1°
Drops below altitude 10° 13:05:30 10° 129° (SE) 5,349 10.8 69.6°
Sets 13:14:45 0° 105° (ESE) 6,953 11.2 67.4°
